Year,Month,Day,Hour,Minute,Value (Times are PST for temperature in C)
2002,06,01,00,00,11.60
2002,06,01,00,01,11.60
2002,06,01,00,02,11.60
2002,06,01,00,03,11.50
2002,06,01,00,04,11.40
2002,06,01,00,05,11.40
2002,06,01,00,06,11.40
2002,06,01,00,07,11.40
2002,06,01,00,08,11.40
2002,06,01,00,09,11.40
2002,06,01,00,10,11.40
2002,06,01,00,11,11.30
2002,06,01,00,12,11.30
2002,06,01,00,13,11.20
2002,06,01,00,14,11.20
2002,06,01,00,15,11.20
2002,06,01,00,16,11.10
2002,06,01,00,17,11.10
2002,06,01,00,18,11.10
2002,06,01,00,19,11.10
2002,06,01,00,20,11.10
2002,06,01,00,21,10.90
2002,06,01,00,22,10.90
2002,06,01,00,23,10.90
2002,06,01,00,24,10.90
2002,06,01,00,25,10.90
2002,06,01,00,26,10.90
2002,06,01,00,27,10.90
2002,06,01,00,28,10.90
2002,06,01,00,29,10.80
2002,06,01,00,30,10.80
2002,06,01,00,31,10.80
2002,06,01,00,32,10.80
2002,06,01,00,33,10.80
2002,06,01,00,34,10.70
2002,06,01,00,35,10.70
2002,06,01,00,36,10.70
2002,06,01,00,37,10.70
2002,06,01,00,38,10.70
2002,06,01,00,39,10.70
2002,06,01,00,40,10.70
2002,06,01,00,41,10.70
2002,06,01,00,42,10.70
2002,06,01,00,43,10.60
2002,06,01,00,44,10.60
2002,06,01,00,45,10.60
2002,06,01,00,46,10.60
2002,06,01,00,47,10.60
2002,06,01,00,48,10.60
2002,06,01,00,49,10.60
2002,06,01,00,50,10.60
2002,06,01,00,51,10.60
2002,06,01,00,52,10.60
2002,06,01,00,53,10.60
2002,06,01,00,54,10.60
2002,06,01,00,55,10.60
2002,06,01,00,56,10.60
2002,06,01,00,57,10.60
2002,06,01,00,58,10.60
2002,06,01,00,59,10.60
2002,06,01,01,00,10.60
2002,06,01,01,01,10.60
2002,06,01,01,02,10.60
2002,06,01,01,03,10.60
2002,06,01,01,04,10.60
2002,06,01,01,05,10.60
2002,06,01,01,06,10.60
2002,06,01,01,07,10.60
2002,06,01,01,08,10.60
2002,06,01,01,09,10.60
2002,06,01,01,10,10.60
2002,06,01,01,11,10.60
2002,06,01,01,12,10.50
2002,06,01,01,13,10.40
2002,06,01,01,14,10.40
2002,06,01,01,15,10.40
2002,06,01,01,16,10.40
2002,06,01,01,17,10.40
2002,06,01,01,18,10.40
2002,06,01,01,19,10.40
2002,06,01,01,20,10.40
2002,06,01,01,21,10.30
2002,06,01,01,22,10.30
2002,06,01,01,23,10.30
2002,06,01,01,24,10.30
2002,06,01,01,25,10.30
2002,06,01,01,26,10.30
2002,06,01,01,27,10.20
2002,06,01,01,28,10.20
2002,06,01,01,29,10.20
2002,06,01,01,30,10.20
2002,06,01,01,31,10.10
2002,06,01,01,32,10.10
2002,06,01,01,33,10.10
2002,06,01,01,34,10.10
2002,06,01,01,35,10.10
2002,06,01,01,36,10.10
2002,06,01,01,37,10.00
2002,06,01,01,38,9.90
2002,06,01,01,39,9.90
2002,06,01,01,40,9.90
2002,06,01,01,41,9.90
2002,06,01,01,42,9.90
2002,06,01,01,43,9.80
2002,06,01,01,44,9.80
2002,06,01,01,45,9.80
2002,06,01,01,46,9.80
2002,06,01,01,47,9.80
2002,06,01,01,48,9.80
2002,06,01,01,49,9.80
2002,06,01,01,50,9.80
2002,06,01,01,51,9.80
2002,06,01,01,52,9.80
2002,06,01,01,53,9.80
2002,06,01,01,54,9.80
2002,06,01,01,55,9.80
2002,06,01,01,56,9.80
2002,06,01,01,57,9.80
2002,06,01,01,58,9.80
2002,06,01,01,59,9.80
2002,06,01,02,00,9.80
2002,06,01,02,01,9.80
2002,06,01,02,02,9.80
2002,06,01,02,03,9.70
2002,06,01,02,04,9.70
2002,06,01,02,05,9.70
2002,06,01,02,06,9.70
2002,06,01,02,07,9.70
2002,06,01,02,08,9.70
2002,06,01,02,09,9.70
2002,06,01,02,10,9.70
2002,06,01,02,11,9.70
2002,06,01,02,12,9.70
2002,06,01,02,13,9.60
2002,06,01,02,14,9.60
2002,06,01,02,15,9.60
2002,06,01,02,16,9.60
2002,06,01,02,17,9.60
2002,06,01,02,18,9.60
2002,06,01,02,19,9.60
2002,06,01,02,20,9.60
2002,06,01,02,21,9.50
2002,06,01,02,22,9.50
2002,06,01,02,23,9.50
2002,06,01,02,24,9.50
2002,06,01,02,25,9.50
2002,06,01,02,26,9.50
2002,06,01,02,27,9.50
2002,06,01,02,28,9.40
2002,06,01,02,29,9.40
2002,06,01,02,30,9.40
2002,06,01,02,31,9.40
2002,06,01,02,32,9.40
2002,06,01,02,33,9.40
2002,06,01,02,34,9.30
2002,06,01,02,35,9.30
2002,06,01,02,36,9.30
2002,06,01,02,37,9.30
2002,06,01,02,38,9.30
2002,06,01,02,39,9.20
2002,06,01,02,40,9.20
2002,06,01,02,41,9.20
2002,06,01,02,42,9.20
2002,06,01,02,43,9.20
2002,06,01,02,44,9.20
2002,06,01,02,45,9.20
2002,06,01,02,46,9.10
2002,06,01,02,47,9.10
2002,06,01,02,48,9.10
2002,06,01,02,49,9.10
2002,06,01,02,50,9.10
2002,06,01,02,51,9.10
2002,06,01,02,52,9.10
2002,06,01,02,53,9.10
2002,06,01,02,54,9.10
2002,06,01,02,55,9.10
2002,06,01,02,56,9.00
2002,06,01,02,57,9.00
2002,06,01,02,58,9.00
2002,06,01,02,59,9.00
2002,06,01,03,00,9.00
2002,06,01,03,01,9.00
2002,06,01,03,02,8.90
2002,06,01,03,03,8.90
2002,06,01,03,04,8.90
2002,06,01,03,05,8.90
2002,06,01,03,06,8.90
2002,06,01,03,07,8.90
2002,06,01,03,08,8.80
2002,06,01,03,09,8.80
2002,06,01,03,10,8.80
2002,06,01,03,11,8.80
2002,06,01,03,12,8.70
2002,06,01,03,13,8.70
2002,06,01,03,14,8.70
2002,06,01,03,15,8.70
2002,06,01,03,16,8.70
2002,06,01,03,17,8.70
2002,06,01,03,18,8.70
2002,06,01,03,19,8.60
2002,06,01,03,20,8.60
2002,06,01,03,21,8.60
2002,06,01,03,22,8.60
2002,06,01,03,23,8.60
2002,06,01,03,24,8.50
2002,06,01,03,25,8.50
2002,06,01,03,26,8.50
2002,06,01,03,27,8.50
2002,06,01,03,28,8.50
2002,06,01,03,29,8.40
2002,06,01,03,30,8.40
2002,06,01,03,31,8.40
2002,06,01,03,32,8.40
2002,06,01,03,33,8.40
2002,06,01,03,34,8.40
2002,06,01,03,35,8.40
2002,06,01,03,36,8.40
2002,06,01,03,37,8.40
2002,06,01,03,38,8.40
2002,06,01,03,39,8.30
2002,06,01,03,40,8.30
2002,06,01,03,41,8.30
2002,06,01,03,42,8.30
2002,06,01,03,43,8.20
2002,06,01,03,44,8.20
2002,06,01,03,45,8.20
2002,06,01,03,46,8.20
2002,06,01,03,47,8.20
2002,06,01,03,48,8.20
2002,06,01,03,49,8.20
2002,06,01,03,50,8.20
2002,06,01,03,51,8.20
2002,06,01,03,52,8.20
2002,06,01,03,53,8.20
2002,06,01,03,54,8.20
2002,06,01,03,55,8.20
2002,06,01,03,56,8.20
2002,06,01,03,57,8.20
2002,06,01,03,58,8.20
2002,06,01,03,59,8.20
2002,06,01,04,00,8.10
2002,06,01,04,01,8.10
2002,06,01,04,02,8.10
2002,06,01,04,03,8.10
2002,06,01,04,04,8.10
2002,06,01,04,05,8.10
2002,06,01,04,06,8.00
2002,06,01,04,07,8.00
2002,06,01,04,08,8.00
2002,06,01,04,09,8.00
2002,06,01,04,10,8.00
2002,06,01,04,11,8.10
2002,06,01,04,12,8.10
2002,06,01,04,13,8.10
2002,06,01,04,14,8.10
2002,06,01,04,15,8.10
2002,06,01,04,16,8.00
2002,06,01,04,17,8.00
2002,06,01,04,18,8.00
2002,06,01,04,19,8.00
2002,06,01,04,20,8.00
2002,06,01,04,21,8.00
2002,06,01,04,22,8.00
2002,06,01,04,23,8.10
2002,06,01,04,24,8.10
2002,06,01,04,25,8.10
2002,06,01,04,26,8.00
2002,06,01,04,27,8.10
2002,06,01,04,28,8.10
2002,06,01,04,29,8.10
2002,06,01,04,30,8.10
2002,06,01,04,31,8.10
2002,06,01,04,32,8.10
2002,06,01,04,33,8.10
2002,06,01,04,34,8.20
2002,06,01,04,35,8.20
2002,06,01,04,36,8.20
2002,06,01,04,37,8.20
2002,06,01,04,38,8.20
2002,06,01,04,39,8.20
2002,06,01,04,40,8.20
2002,06,01,04,41,8.20
2002,06,01,04,42,8.20
2002,06,01,04,43,8.20
2002,06,01,04,44,8.20
2002,06,01,04,45,8.20
2002,06,01,04,46,8.20
2002,06,01,04,47,8.10
2002,06,01,04,48,8.10
2002,06,01,04,49,8.10
2002,06,01,04,50,8.10
2002,06,01,04,51,8.10
2002,06,01,04,52,8.00
2002,06,01,04,53,8.00
2002,06,01,04,54,8.00
2002,06,01,04,55,8.00
2002,06,01,04,56,7.90
2002,06,01,04,57,7.90
2002,06,01,04,58,7.90
2002,06,01,04,59,7.90
2002,06,01,05,00,7.90
2002,06,01,05,01,7.90
2002,06,01,05,02,7.90
2002,06,01,05,03,7.80
2002,06,01,05,04,7.80
2002,06,01,05,05,7.80
2002,06,01,05,06,7.80
2002,06,01,05,07,7.80
2002,06,01,05,08,7.80
2002,06,01,05,09,7.80
2002,06,01,05,10,7.80
2002,06,01,05,11,7.80
2002,06,01,05,12,7.80
2002,06,01,05,13,7.80
2002,06,01,05,14,7.80
2002,06,01,05,15,7.80
2002,06,01,05,16,7.80
2002,06,01,05,17,7.80
2002,06,01,05,18,7.80
2002,06,01,05,19,7.80
2002,06,01,05,20,7.80
2002,06,01,05,21,7.80
2002,06,01,05,22,7.90
2002,06,01,05,23,7.90
2002,06,01,05,24,7.90
2002,06,01,05,25,7.90
2002,06,01,05,26,7.90
2002,06,01,05,27,7.90
2002,06,01,05,28,7.80
2002,06,01,05,29,7.80
2002,06,01,05,30,7.80
2002,06,01,05,31,7.80
2002,06,01,05,32,7.80
2002,06,01,05,33,7.80
2002,06,01,05,34,7.80
2002,06,01,05,35,7.80
2002,06,01,05,36,7.70
2002,06,01,05,37,7.70
2002,06,01,05,38,7.70
2002,06,01,05,39,7.70
2002,06,01,05,40,7.70
2002,06,01,05,41,7.70
2002,06,01,05,42,7.80
2002,06,01,05,43,7.80
2002,06,01,05,44,7.80
2002,06,01,05,45,7.80
2002,06,01,05,46,7.80
2002,06,01,05,47,7.80
2002,06,01,05,48,7.80
2002,06,01,05,49,7.80
2002,06,01,05,50,7.80
2002,06,01,05,51,7.80
2002,06,01,05,52,7.80
2002,06,01,05,53,7.80
2002,06,01,05,54,7.80
2002,06,01,05,55,7.80
2002,06,01,05,56,7.80
2002,06,01,05,57,7.80
2002,06,01,05,58,7.90
2002,06,01,05,59,7.90
2002,06,01,06,00,7.90
2002,06,01,06,01,7.90
2002,06,01,06,02,7.90
2002,06,01,06,03,7.90
2002,06,01,06,04,7.90
2002,06,01,06,05,8.00
2002,06,01,06,06,8.00
2002,06,01,06,07,8.10
2002,06,01,06,08,8.10
2002,06,01,06,09,8.20
2002,06,01,06,10,8.30
2002,06,01,06,11,8.40
2002,06,01,06,12,8.50
2002,06,01,06,13,8.50
2002,06,01,06,14,8.50
2002,06,01,06,15,8.60
2002,06,01,06,16,8.70
2002,06,01,06,17,8.70
2002,06,01,06,18,8.80
2002,06,01,06,19,8.90
2002,06,01,06,20,8.90
2002,06,01,06,21,9.00
2002,06,01,06,22,9.00
2002,06,01,06,23,9.10
2002,06,01,06,24,9.20
2002,06,01,06,25,9.20
2002,06,01,06,26,9.30
2002,06,01,06,27,9.30
2002,06,01,06,28,9.40
2002,06,01,06,29,9.40
2002,06,01,06,30,9.40
2002,06,01,06,31,9.50
2002,06,01,06,32,9.50
2002,06,01,06,33,9.60
2002,06,01,06,34,9.70
2002,06,01,06,35,9.70
2002,06,01,06,36,9.70
2002,06,01,06,37,9.80
2002,06,01,06,38,9.80
2002,06,01,06,39,9.90
2002,06,01,06,40,10.00
2002,06,01,06,41,10.10
2002,06,01,06,42,10.20
2002,06,01,06,43,10.40
2002,06,01,06,44,10.50
2002,06,01,06,45,10.60
2002,06,01,06,46,10.60
2002,06,01,06,47,10.80
2002,06,01,06,48,10.90
2002,06,01,06,49,11.00
2002,06,01,06,50,11.20
2002,06,01,06,51,11.30
2002,06,01,06,52,11.40
2002,06,01,06,53,11.50
2002,06,01,06,54,11.60
2002,06,01,06,55,11.70
2002,06,01,06,56,11.80
2002,06,01,06,57,11.80
2002,06,01,06,58,12.00
2002,06,01,06,59,12.10
2002,06,01,07,00,12.30
2002,06,01,07,01,12.30
2002,06,01,07,02,12.40
2002,06,01,07,03,12.50
2002,06,01,07,04,12.60
2002,06,01,07,05,12.70
2002,06,01,07,06,12.70
2002,06,01,07,07,12.70
2002,06,01,07,08,12.90
2002,06,01,07,09,13.00
2002,06,01,07,10,13.20
2002,06,01,07,11,13.30
2002,06,01,07,12,13.40
2002,06,01,07,13,13.60
2002,06,01,07,14,13.80
2002,06,01,07,15,13.90
2002,06,01,07,16,13.90
2002,06,01,07,17,14.00
2002,06,01,07,18,14.10
2002,06,01,07,19,14.10
2002,06,01,07,20,14.00
2002,06,01,07,21,14.00
2002,06,01,07,22,13.90
2002,06,01,07,23,13.90
2002,06,01,07,24,13.80
2002,06,01,07,25,13.70
2002,06,01,07,26,13.70
2002,06,01,07,27,13.70
2002,06,01,07,28,13.70
2002,06,01,07,29,13.80
2002,06,01,07,30,13.90
2002,06,01,07,31,13.90
2002,06,01,07,32,14.00
2002,06,01,07,33,14.00
2002,06,01,07,34,14.10
2002,06,01,07,35,14.20
2002,06,01,07,36,14.20
2002,06,01,07,37,14.30
2002,06,01,07,38,14.40
2002,06,01,07,39,14.50
2002,06,01,07,40,14.50
2002,06,01,07,41,14.60
2002,06,01,07,42,14.60
2002,06,01,07,43,14.60
2002,06,01,07,44,14.60
2002,06,01,07,45,14.60
2002,06,01,07,46,14.60
2002,06,01,07,47,14.60
2002,06,01,07,48,14.60
2002,06,01,07,49,14.60
2002,06,01,07,50,14.50
2002,06,01,07,51,14.40
2002,06,01,07,52,14.40
2002,06,01,07,53,14.40
2002,06,01,07,54,14.40
2002,06,01,07,55,14.40
2002,06,01,07,56,14.20
2002,06,01,07,57,14.20
2002,06,01,07,58,14.10
2002,06,01,07,59,14.10
2002,06,01,08,00,14.00
2002,06,01,08,01,14.10
2002,06,01,08,02,14.00
2002,06,01,08,03,14.00
2002,06,01,08,04,14.00
2002,06,01,08,05,13.90
2002,06,01,08,06,13.90
2002,06,01,08,07,13.80
2002,06,01,08,08,13.70
2002,06,01,08,09,13.60
2002,06,01,08,10,13.60
2002,06,01,08,11,13.60
2002,06,01,08,12,13.60
2002,06,01,08,13,13.70
2002,06,01,08,14,13.80
2002,06,01,08,15,13.80
2002,06,01,08,16,13.90
2002,06,01,08,17,13.90
2002,06,01,08,18,13.90
2002,06,01,08,19,13.80
2002,06,01,08,20,13.80
2002,06,01,08,21,13.80
2002,06,01,08,22,13.70
2002,06,01,08,23,13.80
2002,06,01,08,24,13.90
2002,06,01,08,25,14.00
2002,06,01,08,26,14.10
2002,06,01,08,27,14.20
2002,06,01,08,28,14.10
2002,06,01,08,29,14.20
2002,06,01,08,30,14.20
2002,06,01,08,31,14.20
2002,06,01,08,32,14.20
2002,06,01,08,33,14.40
2002,06,01,08,34,14.40
2002,06,01,08,35,14.40
2002,06,01,08,36,14.50
2002,06,01,08,37,14.50
2002,06,01,08,38,14.50
2002,06,01,08,39,14.50
2002,06,01,08,40,14.50
2002,06,01,08,41,14.40
2002,06,01,08,42,14.60
2002,06,01,08,43,14.60
2002,06,01,08,44,14.60
2002,06,01,08,45,14.60
2002,06,01,08,46,14.50
2002,06,01,08,47,14.50
2002,06,01,08,48,14.50
2002,06,01,08,49,14.40
2002,06,01,08,50,14.30
2002,06,01,08,51,14.40
2002,06,01,08,52,14.60
2002,06,01,08,53,14.70
2002,06,01,08,54,14.80
2002,06,01,08,55,14.80
2002,06,01,08,56,14.90
2002,06,01,08,57,14.90
2002,06,01,08,58,14.90
2002,06,01,08,59,14.90
2002,06,01,09,00,14.80
2002,06,01,09,01,14.70
2002,06,01,09,02,14.50
2002,06,01,09,03,14.40
2002,06,01,09,04,14.40
2002,06,01,09,05,14.40
2002,06,01,09,06,14.40
2002,06,01,09,07,14.50
2002,06,01,09,08,14.50
2002,06,01,09,09,14.60
2002,06,01,09,10,14.60
2002,06,01,09,11,14.70
2002,06,01,09,12,14.60
2002,06,01,09,13,14.60
2002,06,01,09,14,14.60
2002,06,01,09,15,14.70
2002,06,01,09,16,14.60
2002,06,01,09,17,14.70
2002,06,01,09,18,14.80
2002,06,01,09,19,14.80
2002,06,01,09,20,14.90
2002,06,01,09,21,14.90
2002,06,01,09,22,14.90
2002,06,01,09,23,14.90
2002,06,01,09,24,15.00
2002,06,01,09,25,15.10
2002,06,01,09,26,15.20
2002,06,01,09,27,15.20
2002,06,01,09,28,15.10
2002,06,01,09,29,15.10
2002,06,01,09,30,15.00
2002,06,01,09,31,15.00
2002,06,01,09,32,15.10
2002,06,01,09,33,15.00
2002,06,01,09,34,15.10
2002,06,01,09,35,15.30
2002,06,01,09,36,15.40
2002,06,01,09,37,15.50
2002,06,01,09,38,15.60
2002,06,01,09,39,15.70
2002,06,01,09,40,15.60
2002,06,01,09,41,15.40
2002,06,01,09,42,15.30
2002,06,01,09,43,15.20
2002,06,01,09,44,15.00
2002,06,01,09,45,15.10
2002,06,01,09,46,15.10
2002,06,01,09,47,15.00
2002,06,01,09,48,15.00
2002,06,01,09,49,15.00
2002,06,01,09,50,15.10
2002,06,01,09,51,15.10
2002,06,01,09,52,15.10
2002,06,01,09,53,15.00
2002,06,01,09,54,14.90
2002,06,01,09,55,14.80
2002,06,01,09,56,14.80
2002,06,01,09,57,14.80
2002,06,01,09,58,14.70
2002,06,01,09,59,14.80
2002,06,01,10,00,14.80
2002,06,01,10,01,14.90
2002,06,01,10,02,14.90
2002,06,01,10,03,15.00
2002,06,01,10,04,15.10
2002,06,01,10,05,15.30
2002,06,01,10,06,15.50
2002,06,01,10,07,15.60
2002,06,01,10,08,15.60
2002,06,01,10,09,15.60
2002,06,01,10,10,15.60
2002,06,01,10,11,15.60
2002,06,01,10,12,15.50
2002,06,01,10,13,15.40
2002,06,01,10,14,15.30
2002,06,01,10,15,15.20
2002,06,01,10,16,15.20
2002,06,01,10,17,15.10
2002,06,01,10,18,15.10
2002,06,01,10,19,15.10
2002,06,01,10,20,15.10
2002,06,01,10,21,15.20
2002,06,01,10,22,15.20
2002,06,01,10,23,15.10
2002,06,01,10,24,15.10
2002,06,01,10,25,15.10
2002,06,01,10,26,15.00
2002,06,01,10,27,15.00
2002,06,01,10,28,14.80
2002,06,01,10,29,14.80
2002,06,01,10,30,14.80
2002,06,01,10,31,14.80
2002,06,01,10,32,15.00
2002,06,01,10,33,15.10
2002,06,01,10,34,15.20
2002,06,01,10,35,15.20
2002,06,01,10,36,15.20
2002,06,01,10,37,15.20
2002,06,01,10,38,15.50
2002,06,01,10,39,15.50
2002,06,01,10,40,15.50
2002,06,01,10,41,15.50
2002,06,01,10,42,15.50
2002,06,01,10,43,15.40
2002,06,01,10,44,15.40
2002,06,01,10,45,15.40
2002,06,01,10,46,15.30
2002,06,01,10,47,15.30
2002,06,01,10,48,15.30
2002,06,01,10,49,15.20
2002,06,01,10,50,15.30
2002,06,01,10,51,15.30
2002,06,01,10,52,15.40
2002,06,01,10,53,15.40
2002,06,01,10,54,15.60
2002,06,01,10,55,15.60
2002,06,01,10,56,15.70
2002,06,01,10,57,15.90
2002,06,01,10,58,15.90
2002,06,01,10,59,15.60
2002,06,01,11,00,15.50
2002,06,01,11,01,15.50
2002,06,01,11,02,15.40
2002,06,01,11,03,15.40
2002,06,01,11,04,15.50
2002,06,01,11,05,15.60
2002,06,01,11,06,15.60
2002,06,01,11,07,15.50
2002,06,01,11,08,15.50
2002,06,01,11,09,15.50
2002,06,01,11,10,15.50
2002,06,01,11,11,15.50
2002,06,01,11,12,15.60
2002,06,01,11,13,15.60
2002,06,01,11,14,15.80
2002,06,01,11,15,15.60
2002,06,01,11,16,15.60
2002,06,01,11,17,15.70
2002,06,01,11,18,15.90
2002,06,01,11,19,15.90
2002,06,01,11,20,15.90
2002,06,01,11,21,16.20
2002,06,01,11,22,16.40
2002,06,01,11,23,16.40
2002,06,01,11,24,16.20
2002,06,01,11,25,16.10
2002,06,01,11,26,15.90
2002,06,01,11,27,16.00
2002,06,01,11,28,16.10
2002,06,01,11,29,16.00
2002,06,01,11,30,15.90
2002,06,01,11,31,15.90
2002,06,01,11,32,15.90
2002,06,01,11,33,15.90
2002,06,01,11,34,15.90
2002,06,01,11,35,16.00
2002,06,01,11,36,16.10
2002,06,01,11,37,16.10
2002,06,01,11,38,16.10
2002,06,01,11,39,16.10
2002,06,01,11,40,16.10
2002,06,01,11,41,16.10
2002,06,01,11,42,16.20
2002,06,01,11,43,16.20
2002,06,01,11,44,16.30
2002,06,01,11,45,16.50
2002,06,01,11,46,16.60
2002,06,01,11,47,16.80
2002,06,01,11,48,17.20
2002,06,01,11,49,17.60
2002,06,01,11,50,17.90
2002,06,01,11,51,18.10
2002,06,01,11,52,18.30
2002,06,01,11,53,18.40
2002,06,01,11,54,18.50
2002,06,01,11,55,18.60
2002,06,01,11,56,18.50
2002,06,01,11,57,18.30
2002,06,01,11,58,18.20
2002,06,01,11,59,18.00
2002,06,01,12,00,17.90
2002,06,01,12,01,18.00
2002,06,01,12,02,18.10
2002,06,01,12,03,18.00
2002,06,01,12,04,17.90
2002,06,01,12,05,18.00
2002,06,01,12,06,18.10
2002,06,01,12,07,18.30
2002,06,01,12,08,18.50
2002,06,01,12,09,18.70
2002,06,01,12,10,18.70
2002,06,01,12,11,18.50
2002,06,01,12,12,18.40
2002,06,01,12,13,18.30
2002,06,01,12,14,18.10
2002,06,01,12,15,18.00
2002,06,01,12,16,18.10
2002,06,01,12,17,18.00
2002,06,01,12,18,18.20
2002,06,01,12,19,18.20
2002,06,01,12,20,18.30
2002,06,01,12,21,18.30
2002,06,01,12,22,18.30
2002,06,01,12,23,18.50
2002,06,01,12,24,18.60
2002,06,01,12,25,18.70
2002,06,01,12,26,18.60
2002,06,01,12,27,18.50
2002,06,01,12,28,18.30
2002,06,01,12,29,18.20
2002,06,01,12,30,18.10
2002,06,01,12,31,18.10
2002,06,01,12,32,18.10
2002,06,01,12,33,18.00
2002,06,01,12,34,17.90
2002,06,01,12,35,17.90
2002,06,01,12,36,18.00
2002,06,01,12,37,18.00
2002,06,01,12,38,17.80
2002,06,01,12,39,17.50
2002,06,01,12,40,17.60
2002,06,01,12,41,17.80
2002,06,01,12,42,18.00
2002,06,01,12,43,18.20
2002,06,01,12,44,18.50
2002,06,01,12,45,18.70
2002,06,01,12,46,18.80
2002,06,01,12,47,18.80
2002,06,01,12,48,19.00
2002,06,01,12,49,19.20
2002,06,01,12,50,19.40
2002,06,01,12,51,19.30
2002,06,01,12,52,18.90
2002,06,01,12,53,18.60
2002,06,01,12,54,18.70
2002,06,01,12,55,18.80
2002,06,01,12,56,18.90
2002,06,01,12,57,19.00
2002,06,01,12,58,19.00
2002,06,01,12,59,19.20
2002,06,01,13,00,19.10
2002,06,01,13,01,19.20
2002,06,01,13,02,19.30
2002,06,01,13,03,19.30
2002,06,01,13,04,19.20
2002,06,01,13,05,19.20
2002,06,01,13,06,19.30
2002,06,01,13,07,19.40
2002,06,01,13,08,19.60
2002,06,01,13,09,19.50
2002,06,01,13,10,19.00
2002,06,01,13,11,18.70
2002,06,01,13,12,18.60
2002,06,01,13,13,18.80
2002,06,01,13,14,18.90
2002,06,01,13,15,18.90
2002,06,01,13,16,18.90
2002,06,01,13,17,19.00
2002,06,01,13,18,19.10
2002,06,01,13,19,18.90
2002,06,01,13,20,18.70
2002,06,01,13,21,18.40
2002,06,01,13,22,18.30
2002,06,01,13,23,18.30
2002,06,01,13,24,18.10
2002,06,01,13,25,17.90
2002,06,01,13,26,17.90
2002,06,01,13,27,17.90
2002,06,01,13,28,17.80
2002,06,01,13,29,17.60
2002,06,01,13,30,17.80
2002,06,01,13,31,17.60
2002,06,01,13,32,17.70
2002,06,01,13,33,17.80
2002,06,01,13,34,17.80
2002,06,01,13,35,17.90
2002,06,01,13,36,18.10
2002,06,01,13,37,17.90
2002,06,01,13,38,17.90
2002,06,01,13,39,17.90
2002,06,01,13,40,17.90
2002,06,01,13,41,17.80
2002,06,01,13,42,17.70
2002,06,01,13,43,17.90
2002,06,01,13,44,18.00
2002,06,01,13,45,18.20
2002,06,01,13,46,18.40
2002,06,01,13,47,18.40
2002,06,01,13,48,18.50
2002,06,01,13,49,18.40
2002,06,01,13,50,18.50
2002,06,01,13,51,18.40
2002,06,01,13,52,18.40
2002,06,01,13,53,18.30
2002,06,01,13,54,18.20
2002,06,01,13,55,17.90
2002,06,01,13,56,17.60
2002,06,01,13,57,17.50
2002,06,01,13,58,17.50
2002,06,01,13,59,17.60
2002,06,01,14,00,17.70
2002,06,01,14,01,17.80
2002,06,01,14,02,17.80
2002,06,01,14,03,17.80
2002,06,01,14,04,17.80
2002,06,01,14,05,17.80
2002,06,01,14,06,17.80
2002,06,01,14,07,17.90
2002,06,01,14,08,17.90
2002,06,01,14,09,17.70
2002,06,01,14,10,17.60
2002,06,01,14,11,17.50
2002,06,01,14,12,17.60
2002,06,01,14,13,17.50
2002,06,01,14,14,17.50
2002,06,01,14,15,17.50
2002,06,01,14,16,17.50
2002,06,01,14,17,17.50
2002,06,01,14,18,17.80
2002,06,01,14,19,18.10
2002,06,01,14,20,18.40
2002,06,01,14,21,18.50
2002,06,01,14,22,18.80
2002,06,01,14,23,18.90
2002,06,01,14,24,18.80
2002,06,01,14,25,18.80
2002,06,01,14,26,18.90
2002,06,01,14,27,18.80
2002,06,01,14,28,18.70
2002,06,01,14,29,18.70
2002,06,01,14,30,18.70
2002,06,01,14,31,18.90
2002,06,01,14,32,19.00
2002,06,01,14,33,18.80
2002,06,01,14,34,18.60
2002,06,01,14,35,18.60
2002,06,01,14,36,18.70
2002,06,01,14,37,18.70
2002,06,01,14,38,18.70
2002,06,01,14,39,18.60
2002,06,01,14,40,18.60
2002,06,01,14,41,18.50
2002,06,01,14,42,18.50
2002,06,01,14,43,18.30
2002,06,01,14,44,18.30
2002,06,01,14,45,18.20
2002,06,01,14,46,18.30
2002,06,01,14,47,18.10
2002,06,01,14,48,17.90
2002,06,01,14,49,17.80
2002,06,01,14,50,17.70
2002,06,01,14,51,17.60
2002,06,01,14,52,17.50
2002,06,01,14,53,17.40
2002,06,01,14,54,17.40
2002,06,01,14,55,17.50
2002,06,01,14,56,17.50
2002,06,01,14,57,17.60
2002,06,01,14,58,17.60
2002,06,01,14,59,17.60
2002,06,01,15,00,17.60
2002,06,01,15,01,17.70
2002,06,01,15,02,17.60
2002,06,01,15,03,17.50
2002,06,01,15,04,17.40
2002,06,01,15,05,17.40
2002,06,01,15,06,17.20
2002,06,01,15,07,17.00
2002,06,01,15,08,16.80
2002,06,01,15,09,16.70
2002,06,01,15,10,16.80
2002,06,01,15,11,16.60
2002,06,01,15,12,16.60
2002,06,01,15,13,16.70
2002,06,01,15,14,16.70
2002,06,01,15,15,16.70
2002,06,01,15,16,16.50
2002,06,01,15,17,16.50
2002,06,01,15,18,16.40
2002,06,01,15,19,16.40
2002,06,01,15,20,16.30
2002,06,01,15,21,16.20
2002,06,01,15,22,16.10
2002,06,01,15,23,16.00
2002,06,01,15,24,16.00
2002,06,01,15,25,16.00
2002,06,01,15,26,15.90
2002,06,01,15,27,15.80
2002,06,01,15,28,15.60
2002,06,01,15,29,15.50
2002,06,01,15,30,15.40
2002,06,01,15,31,15.30
2002,06,01,15,32,15.30
2002,06,01,15,33,15.10
2002,06,01,15,34,15.10
2002,06,01,15,35,15.20
2002,06,01,15,36,15.20
2002,06,01,15,37,15.20
2002,06,01,15,38,15.20
2002,06,01,15,39,15.10
2002,06,01,15,40,15.10
2002,06,01,15,41,15.00
2002,06,01,15,42,15.00
2002,06,01,15,43,15.20
2002,06,01,15,44,15.20
2002,06,01,15,45,15.10
2002,06,01,15,46,15.20
2002,06,01,15,47,15.30
2002,06,01,15,48,15.40
2002,06,01,15,49,15.50
2002,06,01,15,50,15.60
2002,06,01,15,51,15.70
2002,06,01,15,52,16.00
2002,06,01,15,53,16.20
2002,06,01,15,54,16.30
2002,06,01,15,55,16.40
2002,06,01,15,56,16.40
2002,06,01,15,57,16.30
2002,06,01,15,58,16.40
2002,06,01,15,59,16.60
2002,06,01,16,00,16.70
2002,06,01,16,01,16.70
2002,06,01,16,02,16.70
2002,06,01,16,03,16.80
2002,06,01,16,04,16.90
2002,06,01,16,05,16.90
2002,06,01,16,06,17.00
2002,06,01,16,07,17.20
2002,06,01,16,08,17.30
2002,06,01,16,09,17.30
2002,06,01,16,10,17.30
2002,06,01,16,11,17.10
2002,06,01,16,12,17.10
2002,06,01,16,13,17.00
2002,06,01,16,14,17.00
2002,06,01,16,15,16.90
2002,06,01,16,16,16.90
2002,06,01,16,17,16.90
2002,06,01,16,18,17.10
2002,06,01,16,19,17.30
2002,06,01,16,20,17.40
2002,06,01,16,21,17.40
2002,06,01,16,22,17.30
2002,06,01,16,23,17.30
2002,06,01,16,24,17.30
2002,06,01,16,25,17.30
2002,06,01,16,26,17.40
2002,06,01,16,27,17.40
2002,06,01,16,28,17.60
2002,06,01,16,29,17.70
2002,06,01,16,30,17.80
2002,06,01,16,31,17.90
2002,06,01,16,32,18.10
2002,06,01,16,33,18.60
2002,06,01,16,34,19.40
2002,06,01,16,35,19.90
2002,06,01,16,36,20.30
2002,06,01,16,37,20.90
2002,06,01,16,38,21.20
2002,06,01,16,39,21.60
2002,06,01,16,40,21.90
2002,06,01,16,41,22.00
2002,06,01,16,42,22.20
2002,06,01,16,43,22.30
2002,06,01,16,44,22.50
2002,06,01,16,45,22.50
2002,06,01,16,46,22.70
2002,06,01,16,47,22.80
2002,06,01,16,48,22.90
2002,06,01,16,49,22.90
2002,06,01,16,50,22.90
2002,06,01,16,51,22.90
2002,06,01,16,52,23.00
2002,06,01,16,53,23.00
2002,06,01,16,54,22.90
2002,06,01,16,55,23.00
2002,06,01,16,56,23.10
2002,06,01,16,57,23.10
2002,06,01,16,58,23.30
2002,06,01,16,59,23.20
2002,06,01,17,00,23.20
2002,06,01,17,01,23.10
2002,06,01,17,02,23.00
2002,06,01,17,03,23.00
2002,06,01,17,04,23.10
2002,06,01,17,05,23.10
2002,06,01,17,06,23.30
2002,06,01,17,07,23.30
2002,06,01,17,08,23.40
2002,06,01,17,09,23.30
2002,06,01,17,10,23.30
2002,06,01,17,11,23.30
2002,06,01,17,12,23.20
2002,06,01,17,13,23.30
2002,06,01,17,14,23.30
2002,06,01,17,15,23.40
2002,06,01,17,16,23.60
2002,06,01,17,17,23.70
2002,06,01,17,18,23.60
2002,06,01,17,19,23.60
2002,06,01,17,20,23.50
2002,06,01,17,21,23.40
2002,06,01,17,22,23.30
2002,06,01,17,23,23.40
2002,06,01,17,24,23.50
2002,06,01,17,25,23.60
2002,06,01,17,26,23.70
2002,06,01,17,27,23.80
2002,06,01,17,28,23.70
2002,06,01,17,29,23.70
2002,06,01,17,30,23.60
2002,06,01,17,31,23.60
2002,06,01,17,32,23.50